OPS 6063

导读 | 星芒AI

OPS 6063 是一颗由美国空军运营的军事通信卫星,属于轨道卫星计划(Orbital Support Payload)的一部分。该卫星主要用于支持军事通信、情报收集和战术数据传输,确保部队在战场上的信息联通。它运行在地球同步轨道,提供稳定的通信覆盖范围。OPS 6063 的具体任务细节通常不对外公开,因其涉及国家安全和军事机密。该卫星体现了现代军事对空间技术的高度依赖,是美军全球作战能力的重要组成部分。

基本信息
目录编号:
6380
目录名称:
OPS 6063
国际标识:
1973-013A
轨道中心:
EARTH
卫星名称:
OPS 6063
卫星全名:
--
卫星状态:
在轨 (已飞行19236 天)
发射日期:
1973-03-06 UTC
国别 :
美国 (US)
星等 :
--
轨道信息
数据来源 国际轨道数据 AOE轨道数据
星历时间 2025-11-04T10:56:20+0800
11小时前
查看轨道信息
2025-11-04T04:00:00+0800
18小时前
查看轨道信息
半长轴 42163.971km 42163.859km
偏心率 0.002189 0.0021812
轨道倾角 0.914° 0.915°
近地点辐角 282.979° 282.966°
升交点赤经 258.352° 258.368°
平近点角 340.773° 236.399°
近地点 35693.539km 35693.756km
远地点 35878.133km 35877.692km
周期 1436.058分钟 1436.052分钟
每日圈数 1.002745 1.002749
详细信息
使用方式:
暂无
2D轨道图
3D轨道图
轨道高度分析图
轨道倾角分析图
轨道综合分析图
查看轨道综合分析图